Marion, IN

6:08 AM EDT on June 25, 2017 (GMT -0400)
Marion Municipal

Weather History for KMZZ - January, 2014

Change the Weather History Date:

Monday, January 27, 2014

  Actual Average (KMIE) Record (KMIE)
Temperature  
Mean Temperature 6 °F -  
Max Temperature 78 °F 31 °F 60 °F (1999)
Min Temperature -12 °F 15 °F -9 °F (2000)
Degree Days  
Heating Degree Days 60    
Moisture  
Dew Point -8 °F    
Average Humidity 67    
Maximum Humidity 77    
Minimum Humidity 52    
Precipitation  
Precipitation 0.00 in - - ()
Sea Level Pressure  
Sea Level Pressure 30.15 in    
Wind  
Wind Speed 25 mph (WNW)    
Max Wind Speed 41 mph    
Max Gust Speed 51 mph    
Visibility 8 miles    
Events Snow    
Averages and records for this station are not official NWS values.
T = Trace of Precipitation, MM = Missing Value Source: NWS Daily Summary

Daily Weather History Graph

Daily Weather History Graph

Search for Another Location

Airport or City:

Trip Planner

Search our weather history database for the weather conditions in past years. The results will help you decide how hot, cold, wet, or windy it might be!

Date:

Astronomy

Jan. 27, 2014 Rise Set
Actual Time 7:56 AM EST 5:54 PM EST
Civil Twilight 7:27 AM EST 6:24 PM EST
Nautical Twilight 6:54 AM EST 6:56 PM EST
Astronomical Twilight 6:22 AM EST 7:29 PM EST
Moon 4:37 AM EST (1/27) 2:40 PM EST (1/27)
Length of Visible Light 10h 56m
Length of Day
9h 58m
Waning Crescent, 15% of the Moon is Illuminated
Jan 27
Waning Crescent
Jan 30
New
Feb 6
First Quarter
Feb 14
Full
Feb 22
Last Quarter

Hourly Weather History & Observations

Time (EST) Temp. Windchill Dew Point Humidity Pressure Visibility Wind Dir Wind Speed Gust Speed Precip Events Conditions
12:15 AM 23.4 °F 3.5 °F 16.2 °F 74% 29.68 in 4.0 mi WNW 41.4 mph 50.6 mph N/A   Haze
12:35 AM 19.9 °F -0.6 °F 9.3 °F 63% 29.69 in 7.0 mi WNW 38.0 mph 44.9 mph N/A   Overcast
12:55 AM 18.1 °F -2.3 °F 4.1 °F 54% 29.72 in 7.0 mi WNW 34.5 mph 42.6 mph N/A   Overcast
1:15 AM 16.5 °F -3.7 °F 1.8 °F 52% 29.73 in 10.0 mi WNW 31.1 mph 40.3 mph N/A   Overcast
1:35 AM 15.8 °F -3.7 °F 3.9 °F 60% 29.74 in 10.0 mi WNW 27.6 mph 38.0 mph N/A   Overcast
1:55 AM 14.4 °F -8.6 °F 4.1 °F 64% 29.76 in 1.0 mi WNW 39.1 mph 50.6 mph N/A Snow Light Snow
2:15 AM 11.3 °F -12.6 °F 5.0 °F 76% 29.79 in 1.0 mi West 38.0 mph 42.6 mph N/A   Haze
2:35 AM 9.9 °F -13.4 °F 3.6 °F 76% 29.81 in 1.8 mi WNW 33.4 mph 44.9 mph N/A   Haze
2:55 AM 8.6 °F -14.1 °F 2.7 °F 77% 29.84 in 2.0 mi WNW 29.9 mph 42.6 mph N/A   Haze
3:15 AM 7.5 °F -14.9 °F 0.9 °F 74% 29.86 in 2.0 mi WNW 27.6 mph 43.7 mph N/A   Haze
3:35 AM 6.4 °F -15.6 °F -0.4 °F 74% 29.89 in 5.0 mi WNW 25.3 mph 33.4 mph N/A   Haze
3:55 AM 5.5 °F -17.6 °F -0.9 °F 75% 29.91 in 2.0 mi WNW 27.6 mph 33.4 mph N/A Snow Light Snow
4:15 AM 4.3 °F -20.0 °F -2.4 °F 74% 29.94 in 4.0 mi WNW 29.9 mph 36.8 mph N/A   Haze
4:35 AM 3.7 °F -17.9 °F -4.0 °F 70% 29.96 in 5.0 mi WNW 21.9 mph 40.3 mph N/A   Haze
4:55 AM 2.8 °F -20.0 °F -4.5 °F 71% 29.97 in 10.0 mi WNW 24.2 mph 31.1 mph N/A   Clear
5:15 AM 2.3 °F -20.7 °F -4.5 °F 73% 29.99 in 4.0 mi WNW 24.2 mph 35.7 mph N/A Snow Light Snow
5:35 AM 1.8 °F -21.8 °F -5.6 °F 71% 30.00 in 7.0 mi WNW 25.3 mph 32.2 mph N/A   Scattered Clouds
5:55 AM 1.0 °F -22.4 °F -6.5 °F 71% 30.01 in 10.0 mi WNW 24.2 mph 33.4 mph N/A   Clear
6:15 AM 0.5 °F -23.1 °F -7.1 °F 70% 30.03 in 10.0 mi WNW 24.2 mph 29.9 mph N/A   Clear
6:35 AM 0.5 °F -21.6 °F -7.6 °F 69% 30.05 in 10.0 mi WNW 20.7 mph 28.8 mph N/A   Clear
6:55 AM -0.0 °F -20.7 °F -8.0 °F 69% 30.06 in 10.0 mi WNW 17.3 mph 21.9 mph N/A   Clear
7:15 AM -0.4 °F -21.7 °F -7.8 °F 71% 30.08 in 10.0 mi WNW 18.4 mph - N/A   Clear
7:35 AM -0.9 °F -23.0 °F -8.1 °F 72% 30.10 in 10.0 mi WNW 19.6 mph 24.2 mph N/A   Clear
7:55 AM -1.5 °F -22.6 °F -8.3 °F 73% 30.10 in 10.0 mi WNW 17.3 mph 23.0 mph N/A   Clear
8:15 AM -2.0 °F -23.9 °F -8.5 °F 74% 30.12 in 5.0 mi WNW 18.4 mph - N/A Snow Light Snow
8:35 AM -2.0 °F -23.3 °F -8.5 °F 74% 30.14 in 10.0 mi WNW 17.3 mph - N/A   Clear
8:55 AM -1.7 °F -23.4 °F -8.7 °F 72% 30.15 in 10.0 mi WNW 18.4 mph - N/A   Clear
9:15 AM -1.5 °F -21.9 °F -8.7 °F 71% 30.16 in 10.0 mi WNW 16.1 mph 19.6 mph N/A   Clear
9:35 AM -1.3 °F -23.5 °F -8.7 °F 71% 30.18 in 10.0 mi WNW 19.6 mph - N/A   Clear
9:55 AM -0.9 °F -21.9 °F -8.7 °F 70% 30.18 in 10.0 mi WNW 17.3 mph - N/A   Clear
10:15 AM -0.6 °F -22.0 °F -8.5 °F 69% 30.19 in 10.0 mi WNW 18.4 mph 24.2 mph N/A   Clear
10:35 AM -0.4 °F -21.7 °F -8.7 °F 68% 30.19 in 10.0 mi WNW 18.4 mph 25.3 mph N/A   Clear
10:55 AM 0.1 °F -21.6 °F -8.7 °F 66% 30.20 in 10.0 mi WNW 19.6 mph 26.5 mph N/A   Clear
11:15 AM 0.3 °F -20.8 °F -8.7 °F 66% 30.20 in 10.0 mi WNW 18.4 mph - N/A   Clear
11:35 AM 0.5 °F -20.0 °F -8.5 °F 66% 30.20 in 10.0 mi WNW 17.3 mph - N/A   Clear
11:55 AM 0.5 °F -23.1 °F -8.7 °F 65% 30.21 in 10.0 mi WNW 24.2 mph 27.6 mph N/A   Clear
12:15 PM 1.0 °F -19.9 °F -8.3 °F 65% 30.22 in 10.0 mi WNW 18.4 mph 24.2 mph N/A   Clear
12:35 PM 1.0 °F -20.9 °F -8.3 °F 65% 30.22 in 7.0 mi WNW 20.7 mph 24.2 mph N/A   Clear
12:55 PM 1.4 °F -21.4 °F -8.0 °F 65% 30.22 in 5.0 mi West 23.0 mph - N/A   Haze
1:15 PM 1.4 °F -21.0 °F -8.3 °F 64% 30.21 in 10.0 mi West 21.9 mph - N/A   Clear
1:35 PM 1.2 °F -20.2 °F -7.8 °F 66% 30.22 in 5.0 mi WNW 19.6 mph 24.2 mph N/A   Haze
1:55 PM 1.4 °F -21.4 °F -7.4 °F 67% 30.21 in 10.0 mi WNW 23.0 mph - N/A   Mostly Cloudy
2:15 PM 1.8 °F -20.0 °F -8.0 °F 64% 30.22 in 10.0 mi West 20.7 mph 29.9 mph N/A   Scattered Clouds
2:35 PM 2.1 °F -19.0 °F -7.6 °F 64% 30.22 in 10.0 mi WNW 19.6 mph 25.3 mph N/A   Scattered Clouds
2:55 PM 2.3 °F -20.2 °F -6.7 °F 66% 30.23 in 7.0 mi West 23.0 mph 29.9 mph N/A   Scattered Clouds
3:15 PM 1.9 °F -20.2 °F -7.4 °F 65% 30.22 in 10.0 mi WNW 21.9 mph 27.6 mph N/A   Scattered Clouds
3:35 PM 1.8 °F -19.5 °F -8.7 °F 62% 30.23 in 10.0 mi WNW 19.6 mph 26.5 mph N/A   Clear
3:55 PM 1.9 °F -20.2 °F -8.0 °F 63% 30.23 in 10.0 mi West 21.9 mph - N/A   Scattered Clouds
4:15 PM 1.9 °F -21.2 °F -7.4 °F 65% 30.24 in 10.0 mi WNW 24.2 mph 29.9 mph N/A   Scattered Clouds
4:35 PM 1.9 °F -19.2 °F -8.3 °F 62% 30.25 in 10.0 mi WNW 19.6 mph 25.3 mph N/A   Clear
4:55 PM 1.4 °F -19.4 °F -8.9 °F 62% 30.26 in 10.0 mi WNW 18.4 mph 24.2 mph N/A   Clear
5:15 PM 0.7 °F -19.8 °F -9.9 °F 61% 30.27 in 10.0 mi WNW 17.3 mph - N/A   Clear
5:35 PM -0.0 °F -21.8 °F -10.8 °F 60% 30.28 in 10.0 mi WNW 19.6 mph 27.6 mph N/A   Clear
5:55 PM -0.9 °F -21.9 °F -12.1 °F 59% 30.29 in 10.0 mi WNW 17.3 mph - N/A   Clear
6:15 PM -1.7 °F -23.4 °F -12.5 °F 60% 30.31 in 10.0 mi WNW 18.4 mph 24.2 mph N/A   Clear
6:35 PM -2.4 °F -23.1 °F -13.5 °F 59% 30.31 in 10.0 mi WNW 16.1 mph 21.9 mph N/A   Clear
6:55 PM -2.9 °F -23.8 °F -13.5 °F 61% 30.33 in 10.0 mi WNW 16.1 mph 21.9 mph N/A   Clear
7:15 PM -3.5 °F -23.8 °F -14.1 °F 60% 30.33 in 7.0 mi WNW 15.0 mph 23.0 mph N/A   Clear
7:35 PM -4.2 °F -23.2 °F -14.6 °F 61% 30.34 in 10.0 mi WNW 12.7 mph - N/A   Clear
7:55 PM -4.9 °F -22.3 °F -13.9 °F 65% 30.35 in 7.0 mi WNW 10.4 mph - N/A   Clear
8:15 PM -5.6 °F -23.2 °F -13.7 °F 68% 30.35 in 7.0 mi NW 10.4 mph - N/A   Clear
8:35 PM -6.2 °F -21.7 °F -13.9 °F 69% 30.36 in 10.0 mi NW 8.1 mph - N/A   Clear
8:55 PM -7.8 °F -24.8 °F -15.0 °F 71% 30.36 in 7.0 mi NW 9.2 mph - N/A   Clear
9:15 PM -7.4 °F -24.4 °F -15.5 °F 68% 30.37 in 10.0 mi WNW 9.2 mph - N/A Snow Light Snow
9:35 PM -7.4 °F -26.4 °F -16.6 °F 64% 30.38 in 10.0 mi WNW 11.5 mph - N/A   Clear
9:55 PM -8.5 °F -24.5 °F -17.9 °F 64% 30.39 in 7.0 mi West 8.1 mph - N/A Snow Light Snow
10:15 PM -10.3 °F -29.0 °F -18.8 °F 66% 30.40 in 7.0 mi West 10.4 mph - N/A   Clear
10:35 PM -11.6 °F -26.9 °F -19.1 °F 69% 30.41 in 10.0 mi West 6.9 mph - N/A   Clear
10:55 PM -12.3 °F -30.4 °F -19.1 °F 72% 30.41 in 10.0 mi WNW 9.2 mph - N/A   Clear
11:15 PM -11.2 °F -30.1 °F -18.2 °F 71% 30.41 in 10.0 mi WNW 10.4 mph - N/A   Clear
11:35 PM -9.9 °F -28.6 °F -17.9 °F 68% 30.41 in 7.0 mi WNW 10.4 mph - N/A   Clear
11:55 PM -9.9 °F -28.6 °F -18.4 °F 66% 30.41 in 10.0 mi WNW 10.4 mph - N/A   Clear